AO-07 1 07530U 74089B 16202.96859672 -.00000051 00000-0 -43838-4 0 9994 2 07530 101.5770 172.9057 0011520 244.9721 148.3233 12.53622145907356 FO-29 1 24278U 96046B 16203.18641056 .00000012 00000-0 45298-4 0 9996 2 24278 98.5846 123.9541 0351256 114.5244 249.2937 13.53069042984115 RS-22 1 27939U 03042A 16203.88488824 .00000144 00000-0 34451-4 0 9991 2 27939 97.8936 354.2307 0012826 188.7613 299.7809 14.66425615684902 AO-73 1 39444U 13066AE 16202.87288616 .00000422 00000-0 59561-4 0 9995 2 39444 097.6784 254.9485 0057299 270.7760 088.6888 14.81105972141971 EO-79 1 40025U 14033R 16203.68952670 .00000521 00000-0 62725-4 0 9991 2 40025 97.9255 109.1372 0011672 316.5484 43.4812 14.88055189113333 XW-2A 1 40903U 15049E 16203.81683406 .00003629 00000-0 10332-3 0 9995 2 40903 97.4440 219.3889 0016177 18.2997 341.8825 15.36659194 46879 XW-2C 1 40906U 15049H 16203.67919716 .00001320 00000-0 76836-4 0 9996 2 40906 97.4534 210.0157 0013938 279.7030 80.2627 15.13690394 46221 LILACSAT-2 1 40908U 15049K 16203.78071694 .00000727 00000-0 45278-4 0 9990 2 40908 97.4600 209.9873 0014714 272.4701 87.4846 15.12605796 46219 UO-11 1 14781U 84021B 16203.18037941 .00000170 00000-0 27346-4 0 9995 2 14781 97.7466 254.1393 0008110 193.8239 166.2754 14.82767598741295 LO-19 1 20442U 90005G 16203.42309481 .00000012 00000-0 20266-4 0 9992 2 20442 98.5440 137.8903 0012738 48.8714 311.3567 14.32823042384255 AO-27 1 22825U 93061C 16202.88134494 .00000003 00000-0 18541-4 0 9996 2 22825 98.7617 159.3410 0007672 213.3220 146.7479 14.29961720190051 IO-26 1 22826U 93061D 16202.91813242 .00000001 00000-0 17919-4 0 9992 2 22826 098.7561 159.4984 0008336 203.9358 156.1438 14.30286841189977 GO-32 1 25397U 98043D 16203.08809261 -.00000017 00000-0 11494-4 0 9998 2 25397 98.5687 147.1535 0000494 175.1009 185.0175 14.23598306936687 NO-44 1 26931U 01043C 16203.80862279 -.00000031 00000-0 19922-4 0 9995 2 26931 67.0495 223.5877 0006305 260.0965 99.9425 14.30416118773093 SO-50 1 27607U 02058C 16203.67144495 .00000518 00000-0 73837-4 0 9995 2 27607 64.5567 55.4845 0064524 209.4588 150.3368 14.75180379730354 CO-55 1 27844U 03031E 16203.58003216 .00000069 00000-0 51040-4 0 9998 2 27844 98.6922 211.3723 0008860 217.9359 142.1195 14.21963292677338 CO-57 1 27848U 03031J 16203.49138423 .00000051 00000-0 43102-4 0 9992 2 27848 98.7018 211.3934 0008662 227.4808 132.5639 14.21588288677219 CO-65 1 32785U 08021C 16202.86836510 .00000409 00000-0 50659-4 0 9996 2 32785 97.6005 235.6802 0013232 178.7690 181.3562 14.87605247445631 PRISM 1 33493U 09002B 16203.67443172 .00000573 00000-0 58100-4 0 9992 2 33493 98.2133 65.3868 0017020 90.4069 269.9104 14.95011385406383 TISAT-1 1 36799U 10035E 16203.84216023 .00000707 00000-0 79605-4 0 9996 2 36799 98.0335 314.6605 0011859 338.2908 21.7805 14.89876475326582 ALMASAT-1 1 38078U 12006B 16203.51025138 .00020920 34592-5 29176-3 0 9991 2 38078 69.4456 291.2424 0375704 52.1559 311.2977 15.04611359234744 DUCHIFAT-1 1 40021U 14033M 16203.68192861 .00000793 00000-0 89508-4 0 9994 2 40021 97.9287 110.2917 0012228 314.7616 45.2605 14.89367741113394 NANOSATCBR1 1 40024U 14033Q 16203.74377847 .00000685 00000-0 79221-4 0 9994 2 40024 97.9261 109.7095 0011466 314.9047 45.1238 14.88769458113371 DTUSAT-2 1 40030U 14033W 16203.67945267 .00000514 00000-0 62514-4 0 9998 2 40030 97.9232 108.5500 0010996 310.2767 49.7487 14.87688496113309 ANTELSAT 1 40034U 14033AA 16203.72888921 .00000380 00000-0 64993-4 0 9995 2 40034 97.9001 91.1220 0057876 275.5528 83.9087 14.73422396112269 MET-2/21 1 22782U 93055A 16203.81697267 .00000004 00000-0 -93759-5 0 9994 2 22782 82.5499 285.7504 0021125 277.8641 221.9619 13.83790779156003 NOAA-15 1 25338U 98030A 16203.54016516 .00000066 00000-0 46609-4 0 9992 2 25338 98.7831 207.7590 0011838 86.9274 273.3260 14.25742501945884 NOAA-18 1 28654U 05018A 16203.49370404 .00000026 00000-0 39733-4 0 9999 2 28654 99.1971 211.3167 0013242 279.8875 80.0801 14.12295151575579 NOAA-19 1 33591U 09005A 16203.52387201 .00000112 00000-0 85693-4 0 9994 2 33591 99.0425 160.5831 0014901 119.8487 240.4167 14.12090489383982 HUBBLE 1 20580U 90037B 16202.92321535 .00000723 00000-0 34027-4 0 9997 2 20580 028.4707 035.9252 0002708 207.9481 290.5035 15.08429254240122 ISS 1 25544U 98067A 16203.91361111 -.00002834 00000-0 -34596-4 0 9995 2 25544 51.6392 244.7602 0002198 128.4776 229.3461 15.54851490 10389 CO-58 1 28895U 05043F 16203.76641044 .00000205 00000-0 48381-4 0 9993 2 28895 97.8348 15.9674 0018331 107.9838 252.3365 14.63223484572161 AAUSAT2 1 32788U 08021F 16203.82034907 .00000815 00000-0 82968-4 0 9995 2 32788 97.6009 245.5455 0013004 148.4884 211.7117 14.93289565446361 DO-64 1 32789U 08021G 16203.67471156 .00001943 00000-0 14702-3 0 9993 2 32789 97.6030 262.2972 0014594 138.7815 221.4516 15.03404487447183 CO-66 1 32791U 08021J 16203.64455915 .00000691 00000-0 77376-4 0 9994 2 32791 97.6011 239.7033 0013988 165.2950 194.8678 14.89820564445926 RS-30 1 32953U 08025A 16203.73144413 .00000030 00000-0 14606-3 0 9999 2 32953 82.5026 85.1739 0018206 289.2262 70.6847 12.43070337370370 JUGNU 1 37839U 11058B 16202.64000502 .00000320 00000-0 28786-4 0 9993 2 37839 019.9617 300.7462 0019033 128.4004 344.4193 14.12546542246657 SRMSAT 1 37841U 11058D 16202.57317056 .00000315 00000-0 28191-4 0 9997 2 37841 019.9730 336.0193 0012026 039.0340 020.1608 14.10545009246311 AO-71 1 37854U 11061E 16203.20237025 .00001193 00000-0 74039-4 0 9990 2 37854 101.7009 262.9698 0172523 333.4677 25.7778 15.02386206257207 HRBE 1 37855U 11061F 16203.37944423 .00002079 00000-0 11986-3 0 9991 2 37855 101.7137 261.2810 0186260 337.3576 21.9494 15.01313775257126 HORYU-2 1 38340U 12025D 16203.49640168 .00000343 00000-0 59048-4 0 9998 2 38340 98.3568 190.1552 0010293 263.1943 96.8093 14.75065272224535 RS-40 1 38735U 12041C 16203.84747802 .00000006 00000-0 -28272-4 0 9998 2 38735 82.4761 170.1601 0017806 31.5532 328.6611 12.42572282180666 BEESAT-3 1 39134U 13015E 16203.48332577 .00002123 00000-0 11949-3 0 9996 2 39134 64.8689 212.5309 0011377 297.6393 62.3577 15.16130295179317 BEESAT-2 1 39136U 13015G 16203.41230484 .00001544 00000-0 95580-4 0 9995 2 39136 64.8690 219.1978 0010079 300.1565 59.8560 15.13762898179180 ZACUBE-1 1 39417U 13066B 16203.14086340 .00000314 00000-0 46801-4 0 9999 2 39417 97.6772 254.5584 0058088 272.0029 87.4532 14.80430421143798 TRITON-1 1 39427U 13066M 16203.11989189 .00000266 00000-0 51167-4 0 9997 2 39427 97.6651 234.2513 0113880 329.4476 30.0128 14.67219890142498 GOMX-1 1 39430U 13066Q 16203.69177830 .00000474 00000-0 95640-4 0 9991 2 39430 97.6689 222.0109 0152661 7.2510 353.0832 14.58630936141755 LO-74 1 39440U 13066AA 16202.86215245 .00000305 00000-0 50353-4 0 9998 2 39440 097.6710 246.2081 0079670 295.0303 064.2650 14.75191014142043 SPROUT 1 39770U 14029E 16202.77625515 .00001443 00000-0 17341-3 0 9992 2 39770 97.8738 299.6293 0008577 343.0045 17.0896 14.85475724116923 EO-80 1 40032U 14033Y 16203.70709617 .00000509 00000-0 62118-4 0 9995 2 40032 97.9240 108.5868 0010956 310.3823 49.6436 14.87621687113309 VELOX-1 1 40057U 14034E 16203.75594752 .00000561 00000-0 87675-4 0 9993 2 40057 98.1953 293.0739 0011986 43.0113 317.2038 14.76754307110980 DAURIA DX 1 1 40071U 14037C 16203.73558013 .00000228 00000-0 36939-4 0 9997 2 40071 98.3325 295.9758 0009504 40.6984 319.4941 14.80840507110064 UKUBE-1 1 40074U 14037F 16203.75408738 .00000576 00000-0 77872-4 0 9997 2 40074 98.3366 298.2760 0005559 48.5308 311.6384 14.83121369110194 HODOYOSHI-1 1 40299U 14070B 16203.73346154 .00001406 00000-0 65605-4 0 9998 2 40299 97.4295 285.1595 0013665 164.1085 314.7416 15.21415460 94685 CHUBUSAT-1 1 40300U 14070C 16203.78045527 .00001450 00000-0 70319-4 0 9993 2 40300 97.4248 283.3389 0021110 173.1595 303.0847 15.19931270 94584 QSAT-EOS 1 40301U 14070D 16203.77025306 .00003069 00000-0 13885-3 0 9998 2 40301 97.4192 282.7070 0029196 173.5855 304.7192 15.21288726 94561 FIREBIRD FU3 1 40377U 15003B 16203.86259712 .00003033 00000-0 13895-3 0 9990 2 40377 99.0897 317.2728 0143442 15.7424 344.8193 15.12819179 81023 FIREBIRD FU4 1 40378U 15003C 16203.85873521 .00003031 00000-0 13873-3 0 9994 2 40378 99.0899 317.2840 0143658 15.6985 344.8626 15.12829953 81023 GRIFEX 1 40379U 15003D 16203.83594289 .00002131 00000-0 10316-3 0 9993 2 40379 99.0906 316.3021 0147923 19.6726 341.0123 15.11004836 80967 NO-84 1 40654U 15025D 16202.43405257 .00011453 00000-0 23997-3 0 01789 2 40654 054.9971 271.6090 0206622 154.9700 206.1294 15.26398168029111 NO-83 1 40655U 15025E 16202.43125145 .00019718 00000-0 36936-3 0 01942 2 40655 054.9873 264.1062 0187844 158.3308 202.5561 15.31754607029190 DEORBITSAIL 1 40719U 15032E 16203.26288536 .00000605 00000-0 95986-4 0 9996 2 40719 98.0132 94.5901 0017742 124.0009 236.2889 14.75595935 55518 NUDT-PHONESAT 1 40900U 15049B 16203.72796127 .00003537 00000-0 18153-3 0 9994 2 40900 97.4442 210.8464 0013315 300.3393 59.6523 15.17102962 46312 XW-2D 1 40907U 15049J 16203.74550508 .00001338 00000-0 77762-4 0 9993 2 40907 97.4501 209.9442 0013303 277.6979 82.2742 15.13737198 46230 XW-2F 1 40910U 15049M 16203.76840698 .00002303 00000-0 12934-3 0 9993 2 40910 97.4525 210.1909 0014226 276.0457 83.9153 15.14236526 46134 XW-2B 1 40911U 15049N 16203.74539194 .00001316 00000-0 76546-4 0 9991 2 40911 97.4548 210.1375 0013200 277.9123 82.0611 15.13719030 46132 DCBB 1 40912U 15049P 16203.74087145 .00002485 00000-0 13185-3 0 9993 2 40912 97.4519 211.0345 0014522 271.5892 174.9306 15.16194506 46195 TW-1C 1 40926U 15051B 16203.83881529 .00008246 00000-0 22939-3 0 9997 2 40926 97.2716 240.3846 0012120 286.5913 158.5850 15.37017798 46080 TW-1A 1 40928U 15051D 16203.73163446 .00003789 00000-0 11905-3 0 9997 2 40928 97.2676 239.2527 0012734 308.5047 145.2170 15.33530960 46012 IO-86 1 40931U 15052B 16203.05651872 .00000861 00000-0 31130-4 0 9993 2 40931 5.9988 73.6373 0013226 242.0260 117.8639 14.76471632 43943 GomX-3 1 40949U 98067HA 16203.56653461 .00125312 00000-0 56541-3 0 9992 2 40949 51.6270 215.9472 0002233 6.7716 353.3844 15.83269536 45508 LQSat 1 40958U 15057A 16203.75456458 .00000118 00000-0 26240-4 0 9998 2 40958 98.0133 278.1915 0019442 46.3601 313.9211 14.72882388 42473 AO-85 1 40967U 15058D 16202.34389925 .00000299 00000-0 50754-4 0 01930 2 40967 064.7754 145.2911 0200345 194.9387 164.5739 14.75065226028169 ATHENOXAT-1 1 41168U 15077C 16203.04996113 .00003450 00000-0 16557-3 0 9994 2 41168 14.9907 65.9888 0012698 110.1460 293.1266 15.10117470 32882 ChubuSat-2 1 41338U 16012B 16202.93792162 .00000590 00000-0 40119-4 0 9992 2 41338 031.0039 055.5799 0013897 020.5112 339.6079 14.99424109023225 ChubuSat-3 1 41339U 16012C 16203.84570551 .00000633 00000-0 43342-4 0 9999 2 41339 31.0128 49.5345 0013696 35.5933 324.5617 14.99654006 23333 Horyu-4 1 41340U 16012D 16203.74104317 .00001008 00000-0 72123-4 0 9999 2 41340 31.0060 49.5767 0014198 39.5883 320.5787 15.00083564 23347 e-st@r-II 1 41459U 16025D 16203.47784593 .00002082 00000-0 12160-3 0 9991 2 41459 98.2083 215.9372 0175110 313.5292 45.1477 15.01263307 12924 AAUSAT4 1 41460U 16025E 16203.67066024 .00003201 00000-0 18356-3 0 9994 2 41460 98.2012 216.1420 0173945 312.6779 45.9881 15.01500486 12951 MinXSS 1 41474U 98067HU 16203.56034486 .00015556 00000-0 20499-3 0 9997 2 41474 51.6406 245.4158 0002172 321.7896 38.2943 15.58617458 10292 CADRE 1 41475U 98067HV 16203.59456328 .00033247 00000-0 40674-3 0 9998 2 41475 51.6390 244.8900 0003744 346.6779 13.4114 15.60071944 10309 NODES 1 1 41477U 98067HX 16203.57863987 .00016536 00000-0 22487-3 0 9995 2 41477 51.6394 245.5352 0001573 308.7493 51.3358 15.57720231 10200 NODES 2 1 41478U 98067HY 16203.32327701 .00016869 00000-0 22969-3 0 9992 2 41478 51.6395 246.8292 0001535 309.7214 50.3642 15.57669428 10169 NuSat1-LUSEX 1 41557U 16033B 16203.81827968 .00002672 00000-0 10812-3 0 9998 2 41557 97.4969 277.0297 0016617 91.5086 47.4450 15.25473784 8033 NuSat2 1 41558U 16033C 16203.76064726 .00002693 00000-0 10944-3 0 9997 2 41558 97.4999 276.9775 0016211 90.3418 65.6878 15.25332530 8020 Lapan A3 1 41603U 16040E 16203.90994213 .00000399 00000-0 22290-4 0 9994 2 41603 97.5090 262.8949 0014232 139.8326 211.2358 15.19068817 4507 Swayam 1 41607U 16040J 16203.65011735 .00003156 00000-0 15350-3 0 9991 2 41607 97.5064 262.6218 0016122 145.1707 215.0586 15.19035243 4391 /EX